Change the Weather History Date:

Tuesday, June 17, 2014

  Actual Average (KEWN) Record (KEWN)
Temperature  
Mean Temperature 83 °F 78 °F  
Max Temperature 93 °F 87 °F 95 °F (1950)
Min Temperature 73 °F 68 °F 55 °F (1961)
Degree Days  
Heating Degree Days 0 0  
Month to date heating degree days 0  
Since 1 June heating degree days 0  
Since 1 July heating degree days 2701  
Cooling Degree Days 18 13  
Month to date cooling degree days 184  
Year to date cooling degree days 427  
Since 1 June cooling degree days 184  
Growing Degree Days 33 (Base 50)    
Moisture  
Dew Point 72 °F    
Average Humidity 70    
Maximum Humidity 84    
Minimum Humidity 45    
Precipitation  
Precipitation 0.00 in 0.15 in 1.76 in (1953)
Month to date precipitation 2.53  
Year to date precipitation 21.92  
Snow  
Snow 0.00 in - - ()
Month to date snowfall  
Since 1 July snowfall  
Snow Depth -    
Sea Level Pressure  
Sea Level Pressure 30.12 in    
Wind  
Wind Speed 7 mph (SW)    
Max Wind Speed 10 mph    
Max Gust Speed 17 mph    
Visibility 10 miles    
Events      
T = Trace of Precipitation, MM = Missing Value Source: NWS Daily Summary

Daily Weather History Graph

Daily Weather History Graph

Search for Another Location

Airport or City:

Trip Planner

Search our weather history database for the weather conditions in past years. The results will help you decide how hot, cold, wet, or windy it might be!

Date:

Astronomy

Jun. 17, 2014 Rise Set
Actual Time 5:52 AM EDT 8:26 PM EDT
Civil Twilight 5:22 AM EDT 8:56 PM EDT
Nautical Twilight 4:45 AM EDT 9:33 PM EDT
Astronomical Twilight 4:03 AM EDT 10:14 PM EDT
Moon No Moon Rise 10:55 AM EDT (6/17)
Length of Visible Light 15h 33m
Length of Day
14h 33m
Waning Gibbous, 73% of the Moon is Illuminated
Jun 17
Waning Gibbous
Jun 19
Last Quarter
Jun 27
New
Jul 5
First Quarter
Jul 12
Full

Hourly Weather History & Observations

Time (EDT) Temp. Heat Index Dew Point Humidity Pressure Visibility Wind Dir Wind Speed Gust Speed Precip Events Conditions
12:15 AM 78.1 °F - 71.1 °F 79% 30.14 in 10.0 mi South 5.8 mph - N/A   Clear
12:40 AM 78.1 °F - 71.2 °F 79% 30.14 in 10.0 mi SW 8.1 mph - N/A   Clear
12:55 AM 77.5 °F - 71.2 °F 81% 30.15 in 10.0 mi WSW 6.9 mph - N/A   Clear
1:15 AM 75.7 °F - 69.6 °F 81% 30.15 in 10.0 mi SW 5.8 mph - N/A   Scattered Clouds
1:35 AM 75.6 °F - 69.4 °F 81% 30.15 in 10.0 mi SW 6.9 mph - N/A   Scattered Clouds
2:15 AM 74.3 °F - 68.9 °F 83% 30.14 in 10.0 mi SW 5.8 mph - N/A   Scattered Clouds
2:35 AM 74.3 °F - 68.9 °F 83% 30.13 in 10.0 mi SSW 5.8 mph - N/A   Clear
2:55 AM 74.1 °F - 68.7 °F 83% 30.13 in 10.0 mi SW 5.8 mph - N/A   Clear
3:15 AM 73.4 °F - 68.2 °F 84% 30.13 in 10.0 mi SW 5.8 mph - N/A   Clear
3:35 AM 73.0 °F - 68.0 °F 84% 30.12 in 10.0 mi SW 6.9 mph - N/A   Clear
3:55 AM 73.0 °F - 68.0 °F 84% 30.12 in 10.0 mi SW 6.9 mph - N/A   Clear
4:15 AM 73.0 °F - 68.0 °F 84% 30.12 in 10.0 mi SW 5.8 mph - N/A   Clear
4:35 AM 73.0 °F - 68.0 °F 84% 30.13 in 10.0 mi SW 5.8 mph - N/A   Scattered Clouds
4:55 AM 73.0 °F - 68.0 °F 84% 30.13 in 10.0 mi SW 8.1 mph - N/A   Scattered Clouds
5:15 AM 73.0 °F - 68.0 °F 84% 30.13 in 10.0 mi SW 8.1 mph - N/A   Clear
5:35 AM 73.0 °F - 68.0 °F 84% 30.13 in 10.0 mi SW 6.9 mph - N/A   Clear
5:55 AM 73.0 °F - 68.0 °F 84% 30.14 in 10.0 mi SW 6.9 mph - N/A   Clear
6:15 AM 73.0 °F - 68.0 °F 84% 30.14 in 10.0 mi SW 5.8 mph - N/A   Clear
6:35 AM 73.0 °F - 68.0 °F 84% 30.15 in 10.0 mi SW 6.9 mph - N/A   Scattered Clouds
6:55 AM 73.0 °F - 68.0 °F 84% 30.15 in 7.0 mi SW 6.9 mph - N/A   Clear
7:15 AM 73.4 °F - 68.0 °F 83% 30.15 in 10.0 mi SW 6.9 mph - N/A   Clear
7:35 AM 75.0 °F - 69.8 °F 84% 30.16 in 10.0 mi WSW 8.1 mph - N/A   Clear
7:55 AM 78.1 °F - 72.7 °F 83% 30.16 in 10.0 mi SW 8.1 mph - N/A   Clear
8:35 AM 78.1 °F - 72.7 °F 83% 30.16 in 10.0 mi WSW 8.1 mph - N/A   Scattered Clouds
8:55 AM 78.1 °F - 72.5 °F 83% 30.16 in 10.0 mi WSW 6.9 mph - N/A   Clear
9:15 AM 80.8 °F 85.9 °F 74.1 °F 80% 30.16 in 10.0 mi West 6.9 mph - N/A   Clear
9:35 AM 81.3 °F 86.5 °F 73.6 °F 77% 30.16 in 10.0 mi West 9.2 mph - N/A   Clear
9:55 AM 83.3 °F 90.8 °F 75.0 °F 76% 30.16 in 10.0 mi WSW 6.9 mph - N/A   Clear
10:15 AM 84.0 °F 91.5 °F 74.5 °F 73% 30.16 in 10.0 mi West 5.8 mph - N/A   Clear
10:35 AM 84.4 °F 92.4 °F 75.0 °F 73% 30.16 in 10.0 mi SW 8.1 mph - N/A   Clear
10:55 AM 85.5 °F 94.2 °F 75.0 °F 71% 30.15 in 10.0 mi WSW 8.1 mph - N/A   Clear
11:15 AM 86.2 °F 94.6 °F 74.7 °F 68% 30.15 in 10.0 mi WSW 9.2 mph - N/A   Clear
11:35 AM 87.1 °F 95.9 °F 74.5 °F 66% 30.15 in 10.0 mi West 5.8 mph - N/A   Clear
11:55 AM 88.0 °F 96.5 °F 74.1 °F 63% 30.15 in 10.0 mi WSW 5.8 mph - N/A   Clear
12:15 PM 89.4 °F 98.9 °F 74.3 °F 61% 30.14 in 10.0 mi SW 9.2 mph - N/A   Clear
12:35 PM 90.9 °F 100.6 °F 74.5 °F 58% 30.14 in 10.0 mi WSW 8.1 mph - N/A   Clear
12:55 PM 91.9 °F 103.9 °F 75.6 °F 59% 30.14 in 10.0 mi SW 6.9 mph - N/A   Clear
1:15 PM 93.4 °F 104.8 °F 75.2 °F 55% 30.13 in 10.0 mi WSW 9.2 mph - N/A   Clear
1:35 PM 93.4 °F 106.2 °F 75.9 °F 57% 30.12 in 10.0 mi WSW 8.1 mph - N/A   Clear
1:55 PM 93.4 °F 101.5 °F 72.5 °F 50% 30.12 in 10.0 mi West 4.6 mph - N/A   Clear
2:15 PM 93.4 °F 102.8 °F 73.4 °F 52% 30.11 in 10.0 mi West 6.9 mph - N/A   Clear
2:35 PM 93.4 °F 101.5 °F 72.5 °F 50% 30.11 in 10.0 mi WSW 5.8 mph - N/A   Scattered Clouds
2:55 PM 93.4 °F 100.3 °F 71.1 °F 48% 30.10 in 10.0 mi WSW 6.9 mph - N/A   Clear
3:15 PM 93.4 °F 101.5 °F 72.1 °F 50% 30.09 in 10.0 mi SSW 9.2 mph - N/A   Clear
3:35 PM 93.4 °F 99.2 °F 69.6 °F 46% 30.08 in 10.0 mi WSW 6.9 mph - N/A   Clear
3:55 PM 93.4 °F 98.6 °F 69.3 °F 45% 30.08 in 10.0 mi SW 10.4 mph - N/A   Clear
4:15 PM 93.4 °F 99.2 °F 69.6 °F 46% 30.07 in 10.0 mi WSW 9.2 mph - N/A   Clear
4:35 PM 93.4 °F 99.7 °F 70.7 °F 47% 30.07 in 10.0 mi SW 4.6 mph - N/A   Clear
4:55 PM 93.4 °F 98.6 °F 69.4 °F 45% 30.07 in 10.0 mi WSW 9.2 mph 17.3 mph N/A   Clear
5:15 PM 93.4 °F 99.2 °F 69.6 °F 46% 30.07 in 10.0 mi WSW 9.2 mph - N/A   Clear
5:35 PM 93.4 °F 99.7 °F 70.3 °F 47% 30.06 in 10.0 mi SW 9.2 mph - N/A   Clear
5:55 PM 93.4 °F 99.2 °F 69.8 °F 46% 30.06 in 10.0 mi SW 9.2 mph - N/A   Scattered Clouds
6:15 PM 93.4 °F 99.7 °F 70.5 °F 47% 30.07 in 10.0 mi WSW 9.2 mph - N/A   Clear
6:35 PM 93.4 °F 101.5 °F 72.1 °F 50% 30.06 in 10.0 mi South 9.2 mph - N/A   Clear
6:55 PM 87.6 °F 97.6 °F 75.6 °F 67% 30.07 in 10.0 mi South 9.2 mph - N/A   Clear
7:15 PM 87.1 °F 98.3 °F 76.8 °F 71% 30.07 in 10.0 mi South 10.4 mph - N/A   Clear
7:35 PM 86.5 °F 97.8 °F 76.8 °F 73% 30.08 in 10.0 mi South 10.4 mph - N/A   Clear
7:55 PM 86.0 °F 96.0 °F 75.9 °F 72% 30.09 in 10.0 mi South 9.2 mph 16.1 mph N/A   Clear
8:15 PM 84.7 °F 92.5 °F 74.5 °F 71% 30.09 in 10.0 mi South 10.4 mph - N/A   Clear
8:35 PM 83.7 °F 90.7 °F 74.3 °F 73% 30.10 in 10.0 mi South 8.1 mph - N/A   Clear
8:55 PM 83.3 °F 90.2 °F 74.3 °F 74% 30.10 in 10.0 mi South 9.2 mph - N/A   Clear
9:15 PM 83.3 °F 90.2 °F 74.3 °F 74% 30.11 in 10.0 mi SSW 8.1 mph - N/A   Clear
9:35 PM 81.0 °F 85.1 °F 71.4 °F 73% 30.11 in 10.0 mi SSW 8.1 mph - N/A   Clear
10:00 PM 80.8 °F 84.6 °F 70.9 °F 72% 30.12 in 10.0 mi SSW 5.8 mph - N/A   Clear
10:15 PM 80.8 °F 84.6 °F 70.9 °F 72% 30.11 in 10.0 mi South 6.9 mph - N/A   Clear
10:35 PM 80.8 °F 84.7 °F 71.4 °F 73% 30.12 in 10.0 mi South 4.6 mph - N/A   Clear
10:55 PM 78.6 °F - 70.0 °F 75% 30.12 in 10.0 mi SSW 5.8 mph - N/A   Clear
11:15 PM 78.1 °F - 69.8 °F 76% 30.11 in 10.0 mi SSW 6.9 mph - N/A   Clear
11:35 PM 78.1 °F - 70.0 °F 76% 30.11 in 10.0 mi SSW 4.6 mph - N/A   Clear
11:55 PM 78.1 °F - 70.7 °F 78% 30.11 in 10.0 mi SW 6.9 mph - N/A   Clear